User: anonymous   Login
Location: Unspecified
(0.0000°N, 0.0000°E)
Time: 08:40:03
(UTC+00:00)
Language:

S-56A Canister/Altair - Orbit

View from above orbital plane
View from above orbital plane
View from above satellite
View from above satellite

Ground track
Ground track

The orbit data is extracted from the following two-line orbital elements,

1    82U 61004B   20093.79945726 -.00000065 +00000-0 -15489-5 0  9999
2    82 038.8538 118.5114 1173500 078.4621 294.5222 12.26062129798521
Epoch (UTC): 02 April 2020 19:11:13
Eccentricity: 0.1173500
inclination: 38.8538°
perigee height: 634 km
apogee height: 2498 km
right ascension of ascending node: 118.5114°
argument of perigee: 78.4621°
revolutions per day: 12.26062129
mean anomaly at epoch: 294.5222°
orbit number at epoch: 79852

The dashed part of the orbit path shows where the satellite is in the earth's shadow,  

DLR